Flag for U.S.A. Weather past 2 weeks in Carson City, Nevada, U.S.A.

31 °F

Light snow. More clouds than sun.

Feels Like: 23 °F
Forecast: 20 / 32 °F
Wind: 8 mph from East

Location: Reno Tahoe International Airport

Current Time: Nov 25, 2015 at 1:04:20 PM

Latest Report: Nov 25, 2015 at 11:55 AM

Visibility: 9 mi

Pressure: 29.83 "Hg (24.95 "Hg at 1425m altitude)

Humidity: 76%

Dew point: 24 °F

Location of Carson CityLocation

Historic Weather in Carson City — Graph


Carson City temperature yesterday

Maximum temperature yesterday: 53 °F (at 10:55 AM)
Minimum temperature yesterday: 30 °F (at 10:55 PM)
Average temperature yesterday: 41 °F

Past Weeks' High & Low Weather Summary

High64 °F (Nov 19, 3:55 PM)92% (Nov 24, 2:55 PM)30.47 "Hg (Nov 24, 2:55 PM)
Low21 °F (Nov 11, 6:55 AM)22% (Nov 15, 8:55 AM)29.56 "Hg (Nov 15, 1:55 PM)
Average39 °F62%30.12 "Hg
* Reported Nov 10 11:55 AM — Nov 25 11:55 AM, Carson City, Weather by CustomWeather, © 2015

Note: Actual official high and low records may vary slightly from our data, if they occured in-between our weather recording intervals... More about our weather records


Carson City weather history for previous 24 hours

Time TempWeatherWind HumidityBarometerVisibility
11:55 AM
Wed, Nov 25
31 °FLight snow. More clouds than sun.8 mph76%29.83 "Hg9 mi
10:55 AM30 °FMore clouds than sun.5 mph75%29.86 "Hg10 mi
9:55 AM29 °FLight snow. Cloudy.3 mph82%29.86 "Hg5 mi
8:55 AM28 °FCloudy.3 mph85%29.83 "Hg9 mi
7:55 AM27 °FMore clouds than sun.5 mph81%29.82 "Hg10 mi
6:55 AM26 °FBroken clouds.3 mph81%29.82 "Hg10 mi
5:55 AM25 °FPartly cloudy.5 mph85%29.80 "Hg10 mi
4:55 AM25 °FPassing clouds.3 mph81%29.80 "Hg10 mi
3:55 AM26 °FPartly cloudy.5 mph77%29.78 "Hg10 mi
2:55 AM28 °FPassing clouds.6 mph72%29.80 "Hg10 mi
1:55 AM27 °FPassing clouds.9 mph75%29.77 "Hg10 mi
12:55 AM28 °FPassing clouds.15 mph72%29.76 "Hg10 mi
11:55 PM
Tue, Nov 24
32 °FPassing clouds.10 mph59%29.74 "Hg10 mi
10:55 PM30 °FPassing clouds.13 mph66%29.71 "Hg10 mi
9:55 PM31 °FPassing clouds.3 mph69%29.72 "Hg10 mi
8:55 PM32 °FLight snow. Partly cloudy.13 mph66%29.72 "Hg8 mi
7:55 PM33 °FPassing clouds.12 mph61%29.71 "Hg10 mi
6:55 PM31 °FLight snow. Partly cloudy.16 mph79%29.75 "Hg6 mi
5:55 PM32 °FLight snow. Partly cloudy.16 mph79%29.70 "Hg6 mi
4:55 PM33 °FPassing clouds.16 mph78%29.68 "Hg10 mi
3:55 PM39 °FLight snow. Partly sunny.13 mph65%29.62 "Hg6 mi
2:55 PM34 °FLight snow. Fog.5 mph92%29.63 "Hg1 mi
1:55 PM40 °FLight rain. Cloudy.20 mph83%29.59 "Hg7 mi
Weather by CustomWeather, © 2015

See weather overviewHow to use our weather pages